Location: Zagreb
(45.8000°N, 16.0000°E)
Time: 16:22:36
(UTC+01:00)

Tiros 1 despin weight - Pass Details

Date: 28 January 2020
Orbit: 594 x 642 km, 48.2° (Epoch: 25 February)

Event Time Altitude Azimuth Distance (km) Brightness Sun altitude
Rises 11:28:26 0° 255° (WSW) 2,855 ? 25.3°
Reaches altitude 10° 11:30:43 10° 256° (WSW) 1,960 ? 25.3°
Maximum altitude 11:35:14 83° 343° (NNW) 626 ? 25.5°
Drops below altitude 10° 11:39:50 10° 73° (ENE) 1,995 ? 25.6°
Sets 11:42:10 0° 74° (ENE) 2,911 ? 25.6°
